| time (UTC) | temp F | wind direction | speed knots | gust knots | rain 1hr in | rain 24hr in | rain mn in | humidity % | barometer mb |
| 20260505171610 | 63 | 292 | 6.1 | 12.2 | 0.00 | 0.00 | 0.00 | 69 | 1015.7 |
| 20260505170042 | 62 | 298 | 7.0 | 13.0 | 0.00 | 0.00 | 0.00 | 69 | 1015.7 |
| 20260505163035 | 61 | 294 | 6.1 | 14.8 | 0.00 | 0.00 | 0.00 | 71 | 1015.6 |
| 20260505161537 | 61 | 292 | 5.2 | 12.2 | 0.00 | 0.00 | 0.00 | 71 | 1015.7 |
| 20260505153036 | 60 | 293 | 4.3 | 9.6 | 0.00 | 0.00 | 0.00 | 74 | 1015.6 |
| 20260505124530 | 51 | 270 | 1.7 | 5.2 | 0.00 | 0.00 | 0.00 | 92 | 1014.7 |
| 20260505123030 | 51 | 284 | 0.0 | 2.6 | 0.00 | 0.00 | 0.00 | 92 | 1014.7 |
| 20260505120106 | 51 | 158 | 1.7 | 4.3 | 0.00 | 0.00 | 0.00 | 91 | 1014.5 |
| 20260505114608 | 52 | 140 | 1.7 | 4.3 | 0.00 | 0.00 | 0.00 | 91 | 1014.4 |
| 20260505113107 | 52 | 279 | 0.9 | 4.3 | 0.00 | 0.00 | 0.00 | 92 | 1014.4 |
| 20260505111645 | 51 | 215 | 0.9 | 3.5 | 0.00 | 0.00 | 0.00 | 91 | 1014.2 |
| 20260505101537 | 54 | 259 | 0.0 | 4.3 | 0.00 | 0.00 | 0.00 | 89 | 1013.7 |
| 20260505100107 | 53 | 307 | 0.9 | 6.1 | 0.00 | 0.00 | 0.00 | 89 | 1013.8 |
| 20260505094531 | 53 | 180 | 0.9 | 3.5 | 0.00 | 0.00 | 0.00 | 86 | 1013.6 |
| 20260505093108 | 55 | 179 | 0.0 | 3.5 | 0.00 | 0.00 | 0.00 | 84 | 1013.5 |
| 20260505090037 | 58 | 262 | 1.7 | 6.1 | 0.00 | 0.00 | 0.00 | 84 | 1013.1 |
| 20260505083037 | 55 | 268 | 1.7 | 4.3 | 0.00 | 0.00 | 0.00 | 89 | 1013.1 |
| 20260505081530 | 54 | 147 | 0.0 | 4.3 | 0.00 | 0.00 | 0.00 | 89 | 1013.0 |
| 20260505080030 | 54 | 281 | 0.9 | 2.6 | 0.00 | 0.00 | 0.00 | 88 | 1012.9 |
| 20260505074536 | 54 | 258 | 0.9 | 2.6 | 0.00 | 0.00 | 0.00 | 86 | 1012.8 |
| 20260505073111 | 55 | 157 | 0.0 | 0.0 | 0.00 | 0.00 | 0.00 | 85 | 1012.7 |
| 20260505071531 | 56 | 157 | 0.0 | 0.0 | 0.00 | 0.00 | 0.00 | 82 | 1012.6 |
| 20260505070031 | 58 | 157 | 0.0 | 3.5 | 0.00 | 0.00 | 0.00 | 78 | 1012.5 |
| 20260505064528 | 60 | 170 | 0.0 | 3.5 | 0.00 | 0.00 | 0.00 | 74 | 1012.3 |
| 20260505063029 | 62 | 211 | 1.7 | 4.3 | 0.00 | 0.00 | 0.00 | 73 | 1012.2 |
| 20260505061618 | 62 | 213 | 1.7 | 4.3 | 0.00 | 0.00 | 0.00 | 73 | 1012.2 |
| 20260505060055 | 60 | 188 | 2.6 | 7.0 | 0.00 | 0.00 | 0.00 | 76 | 1012.2 |
| 20260505050148 | 66 | 197 | 1.7 | 4.3 | 0.00 | 0.00 | 0.00 | 62 | 1011.8 |
| 20260505034533 | 64 | 224 | 1.7 | 4.3 | 0.00 | 0.00 | 0.00 | 66 | 1010.8 |
| 20260505033037 | 66 | 231 | 1.7 | 3.5 | 0.00 | 0.00 | 0.00 | 62 | 1010.5 |
| 20260505031528 | 68 | 239 | 0.9 | 3.5 | 0.00 | 0.00 | 0.00 | 58 | 1010.2 |
| 20260505030031 | 71 | 267 | 1.7 | 6.1 | 0.00 | 0.00 | 0.00 | 54 | 1009.9 |
| 20260505024530 | 73 | 282 | 1.7 | 5.2 | 0.00 | 0.00 | 0.00 | 51 | 1009.8 |
| 20260505021529 | 75 | 299 | 3.5 | 9.6 | 0.00 | 0.00 | 0.00 | 49 | 1009.7 |
| 20260505013030 | 76 | 296 | 6.1 | 16.5 | 0.00 | 0.00 | 0.00 | 48 | 1009.5 |
| 20260505011531 | 76 | 293 | 6.1 | 13.0 | 0.00 | 0.00 | 0.00 | 48 | 1009.5 |
| 20260505010039 | 77 | 292 | 6.1 | 13.0 | 0.00 | 0.00 | 0.00 | 48 | 1009.5 |
| 20260505004534 | 77 | 294 | 7.0 | 14.8 | 0.00 | 0.00 | 0.00 | 47 | 1009.5 |
| 20260505003037 | 78 | 302 | 7.0 | 15.6 | 0.00 | 0.00 | 0.00 | 47 | 1009.3 |
| 20260505001531 | 78 | 302 | 7.0 | 14.8 | 0.00 | 0.00 | 0.00 | 46 | 1009.3 |
| 20260504234616 | 79 | 298 | 5.2 | 9.6 | 0.00 | 0.00 | 0.00 | 45 | 1009.2 |
| 20260504233030 | 79 | 303 | 6.1 | 13.9 | 0.00 | 0.00 | 0.00 | 45 | 1009.2 |
| 20260504231531 | 79 | 284 | 7.0 | 13.9 | 0.00 | 0.00 | 0.00 | 45 | 1009.2 |
| 20260504230036 | 79 | 283 | 6.1 | 13.9 | 0.00 | 0.00 | 0.00 | 45 | 1009.2 |
| 20260504224530 | 79 | 295 | 6.1 | 13.9 | 0.00 | 0.00 | 0.00 | 46 | 1009.4 |
| 20260504221530 | 79 | 298 | 6.1 | 12.2 | 0.00 | 0.00 | 0.00 | 44 | 1009.6 |
| 20260504220032 | 80 | 295 | 5.2 | 12.2 | 0.00 | 0.00 | 0.00 | 43 | 1009.8 |
| 20260504214531 | 80 | 297 | 5.2 | 12.2 | 0.00 | 0.00 | 0.00 | 44 | 1009.9 |
| 20260504213036 | 80 | 307 | 4.3 | 10.4 | 0.00 | 0.00 | 0.00 | 44 | 1010.0 |
| 20260504211531 | 80 | 322 | 5.2 | 11.3 | 0.00 | 0.00 | 0.00 | 44 | 1010.2 |
| 20260504210031 | 79 | 338 | 4.3 | 13.9 | 0.00 | 0.00 | 0.00 | 44 | 1010.4 |
| 20260504204536 | 79 | 320 | 5.2 | 11.3 | 0.00 | 0.00 | 0.00 | 44 | 1010.6 |
| 20260504203151 | 79 | 336 | 3.5 | 8.7 | 0.00 | 0.00 | 0.00 | 45 | 1010.7 |
| 20260504200032 | 78 | 351 | 3.5 | 8.7 | 0.00 | 0.00 | 0.00 | 47 | 1010.9 |
| 20260504194530 | 77 | 336 | 3.5 | 7.8 | 0.00 | 0.00 | 0.00 | 48 | 1011.0 |
| 20260504190031 | 76 | 354 | 3.5 | 8.7 | 0.00 | 0.00 | 0.00 | 49 | 1011.2 |
| 20260504184531 | 76 | 325 | 2.6 | 7.8 | 0.00 | 0.00 | 0.00 | 50 | 1011.3 |
| 20260504181530 | 74 | 16 | 0.9 | 4.3 | 0.00 | 0.00 | 0.00 | 53 | 1011.5 |
| 20260504174530 | 73 | 154 | 0.0 | 3.5 | 0.00 | 0.00 | 0.00 | 55 | 1011.7 |
| 20260504173030 | 72 | 42 | 0.9 | 4.3 | 0.00 | 0.00 | 0.00 | 55 | 1011.7 |